Tracking 35237 objects as of 6-Sep-2026
HD Live streaming from Space Station
objects crossing your sky now

DELTA 1 DEB


DELTA 1 DEB is no longer on orbit


NORAD ID: 8940
Int'l Code: 1975-004W
Launch date: January 22, 1975
Source: United States (US)
Launch site: AIR FORCE WESTERN TEST RANGE (AFWTR)
Decay date: 1999-04-03

Note: This is SATELLITE DEBRIS
Your satellite tracking list
Your tracking list is empty




NASA's NSSDC Master Catalog

Two Line Element Set (TLE):
1 08940U 75004W   99093.01281233 +.05837947 +30854-5 +14578-2 0  9992
2 08940 098.2766 106.1987 0004897 168.9777 192.1502 16.29093629252002
Source of the keplerian elements: AFSPC